Location: Roland
(31.1349°N, 85.4372°W)
Time: 00:43:56
(UTC+00:00)

S-56A Canister/Altair - Pass Details

Date: 28 April 2021
Orbit: 632 x 2500 km, 38.9° (Epoch: 06 May)

Event Time Altitude Azimuth Distance (km) Brightness Sun altitude
Rises 03:28:16 0° 264° (W) 5,593 12.3 -34.8°
Reaches altitude 10° 03:32:29 10° 268° (W) 4,328 11.7 -35.4°
Maximum altitude 03:43:18 57° 345° (NNW) 1,627 9.2 -36.8°
Enters shadow 03:45:43 43° 36° (NE) 1,733 9.2 -37.1°
